Regional Weather Roundup
Issued by NWS Kansas City/Pleasant Hill, MO

Home | Current Version | Previous Version | Graphics & Text | Print | Product List | Glossary Off
Versions: 1 2 3 4 5 6 7 8 9 10 11 12 13 14 15 16 17 18 19 20 21 22 23 24 25 26 27 28 29 30 31 32 33 34 35 36 37 38 39 40 41 42 43 44 45 46 47 48 49 50

000
ASUS43 KEAX 260410
RWREAX

WEATHER ROUNDUP FOR EASTERN KANSAS AND NORTHWEST MISSOURI
NATIONAL WEATHER SERVICE KANSAS CITY/PLEASANT HILL MO
1100 PM CDT WED MAY 25 2016

KSZ040-057-103>105-MOZ028-029-037-043-260500-
...KANSAS CITY METROPOLITAN AREA...

CITY           SKY/WX    TMP DP  RH WIND       PRES   REMARKS
K.C. INTL      CLOUDY    75  69  81 S12       29.86S
K.C. DOWNTOWN  CLOUDY    79  69  71 S7        29.86S
LEES SUMMIT    CLOUDY    76  69  79 S14       29.88S
OLATHE - IXD   CLOUDY    74  70  87 SE10      29.88F
OLATHE - OJC   CLOUDY    73  69  87 SE10      29.88S
LAWRENCE       CLOUDY    76  71  85 SE9       29.86R

$$

MOZ001>008-011>017-020>025-030>033-038>040-044>046-053-054-260500-
...NORTHERN AND CENTRAL MISSOURI...

CITY           SKY/WX    TMP DP  RH WIND       PRES   REMARKS
ST. JOSEPH     CLOUDY    76  67  73 S12       29.83F
MOSBY          CLOUDY    77  66  69 SE3       29.88R
WARRENSBURG    MOCLDY    73  64  73 SE10      29.90S
WHITEMAN AFB   PTCLDY    74  69  82 S9        29.91R
CLINTON        MOCLDY    73  68  83 SE8       29.92R
SEDALIA        CLEAR     74  66  76 S12       29.93S
WARSAW         NOT AVBL
CHILLICOTHE      N/A     76  66  71 SE5       29.89R
KIRKSVILLE     PTCLDY    71  64  78 S6        29.92R

$$

MOZ041-047>049-056>058-063>065-088>090-097-260500-
...EASTERN AND SOUTHERN MISSOURI...

CITY           SKY/WX    TMP DP  RH WIND       PRES   REMARKS
ST. LOUIS INTL CLEAR     75  65  70 S12       29.98S
SPIRIT OF STL  CLEAR     73  65  75 CALM      29.97R
COLUMBIA       CLEAR     72  65  78 S12       29.94S
JEFFERSON CITY CLEAR     73  65  75 SE5       29.94S
SPRINGFIELD    PTCLDY    71  66  84 SE17      29.97R
JOPLIN         MOCLDY    75  71  87 SE9       29.92R
WEST PLAINS    PTCLDY    71  67  87 S8        30.04S

$$

IAZ060-094-KSZ022-034>040-054-083-096-NEZ052-066-093-260500-
...KANSAS...SOUTHEAST NEBRASKA AND IOWA...

CITY           SKY/WX    TMP DP  RH WIND       PRES   REMARKS
TOPEKA         RAIN      76  72  87 SW9G18    29.85S FOG
MANHATTAN      CLOUDY    69  56  62 MISG      29.83R THUNDER
EMPORIA        CLOUDY    75  72  90 S15       29.86R
CHANUTE        CLOUDY    78  71  79 S13       29.88R
WICHITA        CLOUDY    78  72  81 S12       29.82R
OMAHA          CLOUDY    71  66  84 S3        29.83S
LINCOLN        MOCLDY    72  68  87 CALM      29.85R
FALLS CITY     CLOUDY    75  68  78 SE6       29.82R THUNDER
LAMONI         CLOUDY    72  65  78 S3        29.88R
DES MOINES     CLOUDY    75  65  70 S6        29.85S

$$




USA.gov is the U.S. government's official web portal to all federal, state and local government web resources and services.